This is the latest recevied weather packets stored in our database for station/object KC8JWT. If no packets are shown the sender has not sent any weather packets the latest 10 day(s).
| Time | Temp. | Humidity | Pressure | Rain* | Wind** | Luminosity | Snow |
|---|---|---|---|---|---|---|---|
| 1777668244 | 10.56° C | 92% | 1012.9 hPa | 0 mm | - | 65 W/m² | - |
| 1777667941 | 10.56° C | 93% | 1012.9 hPa | 0 mm | - | 70 W/m² | - |
| 1777667638 | 10° C | 92% | 1012.9 hPa | 0 mm | - | 82 W/m² | - |
| 1777667335 | 10° C | 92% | 1012.9 hPa | 0 mm | - | 49 W/m² | - |
| 1777667032 | 10.56° C | 92% | 1012.8 hPa | 0 mm | - | 58 W/m² | - |
| 1777666729 | 10.56° C | 92% | 1012.8 hPa | 0 mm | - | 64 W/m² | - |
| 1777666426 | 10.56° C | 92% | 1013.1 hPa | 0 mm | - | 51 W/m² | - |
| 1777666122 | 10.56° C | 91% | 1012.8 hPa | 0 mm | - | 49 W/m² | - |
| 1777665819 | 10.56° C | 89% | 1012.8 hPa | 1.27 mm | - | 61 W/m² | - |
| 1777665518 | 11.11° C | 88% | 1013.2 hPa | 1.27 mm | - | 58 W/m² | - |
| 1777665212 | 11.11° C | 87% | 1013.2 hPa | 0 mm | - | 48 W/m² | - |
| 1777664909 | 11.67° C | 86% | 1013.1 hPa | 0 mm | - | 75 W/m² | - |
| 1777664605 | 11.67° C | 86% | 1013.2 hPa | 0 mm | - | 68 W/m² | - |
| 1777664301 | 11.67° C | 86% | 1013.1 hPa | 0 mm | - | 86 W/m² | - |
| 1777664000 | 12.22° C | 84% | 1013 hPa | 0 mm | - | 78 W/m² | - |
| 1777663697 | 12.78° C | 85% | 1012.9 hPa | 0 mm | - | 226 W/m² | - |
| 1777663394 | 12.78° C | 83% | 1012.9 hPa | 0 mm | - | 71 W/m² | - |
| 1777663091 | 12.78° C | 84% | 1012.9 hPa | 0 mm | - | 127 W/m² | - |
| 1777662789 | 12.78° C | 85% | 1012.8 hPa | 0 mm | - | 228 W/m² | - |
| 1777662485 | 12.22° C | 85% | 1012.6 hPa | 0 mm | - | 142 W/m² | - |
| 1777662181 | 11.67° C | 85% | 1012.7 hPa | 0 mm | - | 112 W/m² | - |
| 1777661876 | 12.22° C | 85% | 1012.8 hPa | 0 mm | - | 55 W/m² | - |
| 1777661573 | 12.22° C | 84% | 1012.9 hPa | 0 mm | - | 49 W/m² | - |
| 1777661269 | 12.22° C | 84% | 1012.6 hPa | 0 mm | - | 74 W/m² | - |
| 1777660964 | 12.78° C | 83% | 1012.6 hPa | 1.78 mm | - | 123 W/m² | - |
* Rain latest hour (hover to see other rain measurements)
** Current wind speed in m/s (hover to see current wind gust speed)